WXM80 ListenWXM80 Stop

You find our weather info also at:

UK Metoffice

WeatherCloud

Weather Underground

Northeastern Weather Network

AWEKAS

Citizen Weather Observer Program (CWOP)

HAMweather, WeatherForYou, PWS Weather


Weather Underground History page Text

Daily Summary for February 12, 2017 Units:  Metric    English   Both
« Previous Day
Next Day »
Daily Weekly Monthly Yearly Custom
  High: Low: Average:
Temperature: 2.7 °C -1.1 °C 0.6 °C
Dew Point: 2.4 °C -2.7 °C -0.4 °C
Humidity: 98 % 85 % 94 %
Wind Speed: 19.3 km/h 0 km/h 10.3 km/h
Wind Gust: 25.9 km/h - -
Wind:- - ESE
Pressure: 1019.5 hPa 1000.6 hPa -
Precipitation: 0 mm    
Historical Graphs
 
 
Tabular Data for February 12, 2017
Time Temperature Dew Point Pressure Wind Wind Speed Wind Gust Humidity Rainfall Rate (Hourly)
00:02 1.4 °C -0.2 °C 1018.5 hPa ENE 4.3 km/h 6.4 km/h 89 % 0 mm
00:07 1.4 °C -0.2 °C 1018.5 hPa ENE 2.9 km/h 5.6 km/h 89 % 0 mm
00:12 1.4 °C -0.2 °C 1018.5 hPa ENE 2.7 km/h 5.6 km/h 89 % 0 mm
00:17 1.4 °C -0.2 °C 1018.5 hPa ENE 1.4 km/h 3.7 km/h 89 % 0 mm
00:23 1.4 °C -0.2 °C 1018.5 hPa ENE 1.3 km/h 1.9 km/h 89 % 0 mm
00:28 1.4 °C -0.2 °C 1018.5 hPa ENE 1 km/h 1.9 km/h 89 % 0 mm
00:33 1.4 °C -0.2 °C 1018.8 hPa ENE 1.1 km/h 3.2 km/h 89 % 0 mm
00:38 1.4 °C -0.2 °C 1018.8 hPa ENE 2.1 km/h 3.7 km/h 89 % 0 mm
00:43 1.3 °C -0.3 °C 1018.8 hPa ENE 7.6 km/h 9.3 km/h 89 % 0 mm
00:48 1.4 °C -0.2 °C 1018.8 hPa ENE 10.1 km/h 14.5 km/h 89 % 0 mm
00:53 1.4 °C -0.2 °C 1018.8 hPa East 13.2 km/h 16.7 km/h 89 % 0 mm
00:58 1.3 °C -0.7 °C 1018.8 hPa East 13.8 km/h 18.5 km/h 87 % 0 mm
01:03 1.2 °C -0.8 °C 1018.8 hPa East 14.2 km/h 18.5 km/h 87 % 0 mm
01:08 1.1 °C -0.9 °C 1018.8 hPa East 14.6 km/h 18.5 km/h 87 % 0 mm
01:13 0.9 °C -1.1 °C 1018.8 hPa ENE 13.5 km/h 18.5 km/h 86 % 0 mm
01:18 0.8 °C -1.2 °C 1018.8 hPa East 15.3 km/h 22.2 km/h 86 % 0 mm
01:23 0.8 °C -1.2 °C 1018.8 hPa East 16.3 km/h 18.5 km/h 86 % 0 mm
01:28 0.9 °C -1.4 °C 1019.2 hPa ENE 19.3 km/h 24.1 km/h 85 % 0 mm
01:33 0.9 °C -1.3 °C 1019.2 hPa ENE 15.8 km/h 20.9 km/h 85 % 0 mm
01:38 0.8 °C -1.4 °C 1019.2 hPa ENE 14.5 km/h 20.9 km/h 85 % 0 mm
01:43 0.8 °C -1.4 °C 1019.5 hPa ENE 16.1 km/h 22.5 km/h 85 % 0 mm
01:48 0.8 °C -1.4 °C 1019.5 hPa ENE 14.5 km/h 19.3 km/h 85 % 0 mm
01:53 0.8 °C -1.4 °C 1019.2 hPa NE 12.4 km/h 16.7 km/h 85 % 0 mm
01:58 0.7 °C -1.5 °C 1019.5 hPa East 13.5 km/h 22.2 km/h 85 % 0 mm
02:03 0.7 °C -1.5 °C 1019.5 hPa ENE 12.1 km/h 22.2 km/h 85 % 0 mm
02:08 0.7 °C -1.6 °C 1019.5 hPa ENE 12.6 km/h 18.5 km/h 85 % 0 mm
02:14 0.7 °C -1.6 °C 1019.5 hPa ENE 14.5 km/h 18.5 km/h 85 % 0 mm
02:19 0.7 °C -1.6 °C 1019.5 hPa ENE 10.9 km/h 16.7 km/h 85 % 0 mm
02:24 0.7 °C -1.6 °C 1019.2 hPa ENE 10.6 km/h 16.7 km/h 85 % 0 mm
02:29 0.7 °C -1.4 °C 1019.5 hPa NE 11.9 km/h 16.7 km/h 86 % 0 mm
02:34 0.7 °C -1.4 °C 1019.2 hPa ENE 10.6 km/h 16.7 km/h 86 % 0 mm
02:39 0.7 °C -1.4 °C 1019.2 hPa ENE 12.6 km/h 16.1 km/h 86 % 0 mm
02:44 0.6 °C -1.4 °C 1019.5 hPa ENE 10.5 km/h 16.7 km/h 86 % 0 mm
02:49 0.6 °C -1.7 °C 1019.2 hPa ENE 11.6 km/h 14.8 km/h 85 % 0 mm
02:54 0.6 °C -1.7 °C 1018.8 hPa NE 12.7 km/h 16.7 km/h 85 % 0 mm
02:59 0.5 °C -1.7 °C 1018.8 hPa ENE 11.3 km/h 17.7 km/h 85 % 0 mm
03:04 0.4 °C -1.8 °C 1019.2 hPa ENE 9.3 km/h 16.7 km/h 85 % 0 mm
03:09 0.4 °C -1.8 °C 1019.2 hPa ENE 10.5 km/h 16.7 km/h 85 % 0 mm
03:14 0.4 °C -1.8 °C 1019.2 hPa NE 9.7 km/h 16.1 km/h 85 % 0 mm
03:19 0.4 °C -1.8 °C 1018.8 hPa ENE 10.6 km/h 18.5 km/h 85 % 0 mm
03:24 0.4 °C -1.8 °C 1019.2 hPa ENE 9.7 km/h 18.5 km/h 85 % 0 mm
03:30 0.3 °C -1.9 °C 1018.8 hPa ENE 7.9 km/h 14.8 km/h 85 % 0 mm
03:35 0.3 °C -1.9 °C 1019.2 hPa ENE 10 km/h 18.5 km/h 85 % 0 mm
03:40 0.3 °C -1.9 °C 1018.8 hPa NE 12.7 km/h 18.5 km/h 85 % 0 mm
03:45 0.3 °C -1.9 °C 1018.8 hPa ENE 12.7 km/h 18.5 km/h 85 % 0 mm
03:50 0.3 °C -1.9 °C 1019.2 hPa NE 10.3 km/h 16.7 km/h 85 % 0 mm
03:55 0.3 °C -1.9 °C 1019.2 hPa ENE 11.4 km/h 20.4 km/h 85 % 0 mm
04:00 0.3 °C -1.9 °C 1018.8 hPa East 12.2 km/h 16.7 km/h 85 % 0 mm
04:05 0.3 °C -1.9 °C 1018.8 hPa NE 14.3 km/h 18.5 km/h 85 % 0 mm
04:10 0.2 °C -2 °C 1018.8 hPa ENE 11.1 km/h 14.8 km/h 85 % 0 mm
04:15 0.2 °C -2 °C 1018.8 hPa NE 14 km/h 18.5 km/h 85 % 0 mm
04:20 0.2 °C -2.1 °C 1018.8 hPa NE 13 km/h 18.5 km/h 85 % 0 mm
04:25 0.2 °C -2.1 °C 1018.8 hPa ENE 17.2 km/h 20.9 km/h 85 % 0 mm
04:30 0.1 °C -2.2 °C 1018.8 hPa ENE 10.5 km/h 18.5 km/h 85 % 0 mm
04:35 0.1 °C -2.2 °C 1019.2 hPa ENE 14.3 km/h 18.5 km/h 85 % 0 mm
04:40 0 °C -2.2 °C 1018.8 hPa ENE 16.3 km/h 20.4 km/h 85 % 0 mm
04:45 0 °C -2.2 °C 1019.2 hPa ENE 14.5 km/h 14.8 km/h 85 % 0 mm
04:51 -0.1 °C -2.3 °C 1019.2 hPa ENE 14 km/h 22.2 km/h 85 % 0 mm
04:56 -0.1 °C -2.3 °C 1019.2 hPa NE 13 km/h 18.5 km/h 85 % 0 mm
05:01 -0.2 °C -2.4 °C 1018.8 hPa ENE 14.5 km/h 18.5 km/h 85 % 0 mm
05:06 -0.2 °C -2.4 °C 1018.8 hPa ENE 13.7 km/h 20.4 km/h 85 % 0 mm
05:11 -0.2 °C -2.4 °C 1018.8 hPa ENE 13 km/h 20.4 km/h 85 % 0 mm
05:16 -0.2 °C -2.4 °C 1018.8 hPa ENE 12.9 km/h 20.4 km/h 85 % 0 mm
05:21 -0.2 °C -2.4 °C 1018.8 hPa ENE 12.6 km/h 18.5 km/h 85 % 0 mm
05:26 -0.3 °C -2.5 °C 1019.2 hPa ENE 10.5 km/h 18.5 km/h 85 % 0 mm
05:32 -0.3 °C -2.4 °C 1018.8 hPa East 14.3 km/h 19.3 km/h 86 % 0 mm
05:37 -0.3 °C -2.4 °C 1018.8 hPa ENE 16.9 km/h 22.2 km/h 86 % 0 mm
05:42 -0.3 °C -2.4 °C 1018.8 hPa ENE 13.4 km/h 22.2 km/h 86 % 0 mm
05:47 -0.4 °C -2.5 °C 1018.8 hPa East 14 km/h 18.5 km/h 86 % 0 mm
05:52 -0.4 °C -2.5 °C 1018.8 hPa ENE 14.3 km/h 20.9 km/h 86 % 0 mm
05:57 -0.5 °C -2.6 °C 1019.2 hPa ENE 13.5 km/h 18.5 km/h 86 % 0 mm
06:02 -0.6 °C -2.4 °C 1018.8 hPa ENE 14.2 km/h 18.5 km/h 87 % 0 mm
06:07 -0.6 °C -2.7 °C 1018.8 hPa ENE 16.9 km/h 22.2 km/h 86 % 0 mm
06:12 -0.6 °C -2.5 °C 1019.2 hPa ENE 14 km/h 17.7 km/h 87 % 0 mm
06:17 -0.7 °C -2.6 °C 1019.2 hPa ENE 13.8 km/h 18.5 km/h 87 % 0 mm
06:22 -0.7 °C -2.6 °C 1019.2 hPa ENE 12.4 km/h 18.5 km/h 87 % 0 mm
06:27 -0.8 °C -2.7 °C 1019.2 hPa ENE 14 km/h 18.5 km/h 87 % 0 mm
06:32 -0.8 °C -2.7 °C 1019.2 hPa NE 13.5 km/h 18.5 km/h 87 % 0 mm
06:37 -0.8 °C -2.7 °C 1018.8 hPa NE 11.9 km/h 20.4 km/h 87 % 0 mm
06:42 -0.8 °C -2.6 °C 1018.8 hPa NE 12.4 km/h 24.1 km/h 88 % 0 mm
06:47 -0.9 °C -2.6 °C 1018.5 hPa ENE 14.8 km/h 20.4 km/h 88 % 0 mm
06:53 -0.9 °C -2.6 °C 1018.5 hPa ENE 14.5 km/h 24.1 km/h 89 % 0 mm
06:58 -0.9 °C -2.6 °C 1018.5 hPa NE 15.4 km/h 20.4 km/h 89 % 0 mm
07:03 -1 °C -2.6 °C 1018.5 hPa ENE 15.4 km/h 20.4 km/h 89 % 0 mm
07:08 -1.1 °C -2.5 °C 1018.5 hPa ENE 16.6 km/h 20.4 km/h 90 % 0 mm
07:13 -1.1 °C -2.5 °C 1018.2 hPa ENE 17.7 km/h 25.9 km/h 90 % 0.25 mm
07:18 -1.1 °C -2.3 °C 1017.8 hPa ENE 17.5 km/h 25.9 km/h 91 % 0.25 mm
07:23 -1 °C -2.3 °C 1017.8 hPa ENE 13.8 km/h 22.2 km/h 91 % 0.25 mm
07:28 -1 °C -2.1 °C 1017.5 hPa ENE 14.5 km/h 22.5 km/h 92 % 0 mm
07:33 -0.9 °C -2 °C 1017.5 hPa ENE 12.9 km/h 19.3 km/h 92 % 0 mm
07:38 -0.8 °C -1.9 °C 1017.5 hPa East 14.5 km/h 22.5 km/h 92 % 0 mm
07:44 -0.8 °C -1.9 °C 1017.2 hPa ENE 15 km/h 20.4 km/h 92 % 0.51 mm
07:49 -0.8 °C -1.8 °C 1017.2 hPa East 15.4 km/h 18.5 km/h 93 % 0.51 mm
07:54 -0.7 °C -1.7 °C 1017.2 hPa ENE 14.2 km/h 20.4 km/h 93 % 0.51 mm
07:59 -0.7 °C -1.8 °C 1017.2 hPa East 16.1 km/h 20.4 km/h 92 % 0.51 mm
08:04 -0.7 °C -1.7 °C 1017.2 hPa East 14 km/h 16.7 km/h 93 % 0.51 mm
08:09 -0.7 °C -1.7 °C 1017.5 hPa ENE 12.9 km/h 17.7 km/h 93 % 0.51 mm
08:14 -0.7 °C -1.7 °C 1017.5 hPa East 13.2 km/h 16.1 km/h 93 % 0.25 mm
08:19 -0.7 °C -1.7 °C 1017.8 hPa ENE 12.9 km/h 17.7 km/h 93 % 0.25 mm
08:24 -0.7 °C -1.7 °C 1018.2 hPa East 10.5 km/h 13 km/h 93 % 0.25 mm
08:29 -0.7 °C -1.7 °C 1018.2 hPa East 7.6 km/h 13 km/h 93 % 0.25 mm
08:34 -0.7 °C -1.7 °C 1017.8 hPa East 10.8 km/h 14.8 km/h 93 % 0 mm
08:39 -0.7 °C -1.7 °C 1017.8 hPa East 6.8 km/h 8 km/h 93 % 0 mm
08:44 -0.7 °C -1.6 °C 1017.8 hPa East 10.6 km/h 13 km/h 94 % 0.25 mm
08:49 -0.7 °C -1.7 °C 1017.5 hPa East 11.4 km/h 12.9 km/h 93 % 0.25 mm
08:54 -0.7 °C -1.7 °C 1017.5 hPa ENE 11.9 km/h 16.7 km/h 93 % 0.25 mm
08:59 -0.8 °C -1.8 °C 1017.2 hPa East 11.7 km/h 16.7 km/h 93 % 0.25 mm
09:05 -0.8 °C -1.6 °C 1017.2 hPa East 12.9 km/h 16.7 km/h 94 % 0.51 mm
09:10 -0.8 °C -1.6 °C 1017.2 hPa ENE 11.4 km/h 17.7 km/h 94 % 0.51 mm
09:15 -0.8 °C -1.6 °C 1017.2 hPa ENE 13 km/h 16.7 km/h 94 % 0.51 mm
09:20 -0.8 °C -1.7 °C 1017.2 hPa ENE 11.3 km/h 14.8 km/h 94 % 0.51 mm
09:25 -0.8 °C -1.7 °C 1017.2 hPa ENE 10.5 km/h 13 km/h 94 % 0.51 mm
09:30 -0.8 °C -1.6 °C 1017.2 hPa East 12.7 km/h 16.7 km/h 94 % 0.76 mm
09:35 -0.8 °C -1.6 °C 1017.2 hPa East 11.6 km/h 14.8 km/h 94 % 0.76 mm
09:40 -0.8 °C -1.6 °C 1016.5 hPa East 12.1 km/h 14.8 km/h 94 % 0.76 mm
09:45 -0.8 °C -1.6 °C 1016.5 hPa NE 13.2 km/h 18.5 km/h 94 % 0.76 mm
09:50 -0.8 °C -1.5 °C 1016.5 hPa NE 11.6 km/h 16.7 km/h 95 % 0.76 mm
09:55 -0.8 °C -1.5 °C 1016.1 hPa East 14.2 km/h 16.7 km/h 95 % 1.02 mm
10:00 -0.7 °C -1.4 °C 1016.1 hPa East 13.5 km/h 17.7 km/h 95 % 1.02 mm
10:05 -0.7 °C -1.4 °C 1016.1 hPa ENE 11.6 km/h 14.8 km/h 95 % 0.76 mm
10:10 -0.7 °C -1.4 °C 1015.8 hPa ENE 14.5 km/h 20.4 km/h 95 % 0.76 mm
10:16 -0.7 °C -1.4 °C 1015.8 hPa East 13.5 km/h 16.7 km/h 95 % 1.02 mm
10:21 -0.7 °C -1.4 °C 1015.8 hPa East 11.4 km/h 14.8 km/h 95 % 1.02 mm
10:26 -0.6 °C -1.3 °C 1016.1 hPa East 12.4 km/h 16.7 km/h 95 % 1.02 mm
10:31 -0.6 °C -1.3 °C 1016.1 hPa ENE 13.2 km/h 16.7 km/h 95 % 0.76 mm
10:36 -0.6 °C -1.3 °C 1016.1 hPa ENE 11.1 km/h 13 km/h 95 % 0.76 mm
10:41 -0.6 °C -1.3 °C 1016.1 hPa ENE 9 km/h 14.8 km/h 95 % 0.76 mm
10:46 -0.6 °C -1.3 °C 1015.8 hPa East 10.9 km/h 16.7 km/h 95 % 0.51 mm
10:51 -0.6 °C -1.3 °C 1015.8 hPa ENE 8.2 km/h 13 km/h 95 % 0.76 mm
10:56 -0.6 °C -1.3 °C 1015.8 hPa ENE 11.7 km/h 18.5 km/h 95 % 0.51 mm
11:01 -0.6 °C -1.3 °C 1015.1 hPa ENE 12.9 km/h 18.5 km/h 95 % 0.51 mm
11:06 -0.7 °C -1.4 °C 1014.8 hPa ENE 10.6 km/h 13 km/h 95 % 0.76 mm
11:11 -0.7 °C -1.4 °C 1014.4 hPa ENE 13.4 km/h 20.4 km/h 95 % 0.76 mm
11:16 -0.8 °C -1.5 °C 1014.4 hPa ENE 14.6 km/h 20.4 km/h 95 % 0.51 mm
11:21 -0.8 °C -1.5 °C 1014.1 hPa NE 13.7 km/h 18.5 km/h 95 % 0.51 mm
11:26 -0.8 °C -1.6 °C 1014.1 hPa ENE 14.3 km/h 18.5 km/h 95 % 0.76 mm
11:32 -0.8 °C -1.6 °C 1013.8 hPa East 15.4 km/h 20.4 km/h 95 % 0.76 mm
11:37 -0.8 °C -1.3 °C 1013.1 hPa ENE 17.2 km/h 22.2 km/h 96 % 1.02 mm
11:42 -0.7 °C -1.2 °C 1012.8 hPa ENE 19.2 km/h 24.1 km/h 96 % 1.02 mm
11:47 -0.5 °C -1.1 °C 1012.4 hPa East 18 km/h 24.1 km/h 96 % 1.02 mm
11:52 -0.5 °C -1.1 °C 1012.4 hPa ENE 15.6 km/h 19.3 km/h 96 % 1.02 mm
11:57 -0.5 °C -1.1 °C 1012.4 hPa ENE 13.7 km/h 18.5 km/h 96 % 1.27 mm
12:02 -0.4 °C -1 °C 1012.1 hPa ENE 12.6 km/h 16.7 km/h 96 % 1.52 mm
12:07 -0.3 °C -0.9 °C 1011.7 hPa East 13.4 km/h 20.9 km/h 96 % 1.52 mm
12:12 -0.2 °C -0.8 °C 1011.4 hPa East 18.2 km/h 20.4 km/h 96 % 1.78 mm
12:17 -0.1 °C -0.5 °C 1010.7 hPa East 14.5 km/h 20.4 km/h 97 % 1.78 mm
12:22 0.1 °C -0.4 °C 1010.7 hPa East 15 km/h 18.5 km/h 97 % 2.03 mm
12:27 0.1 °C -0.3 °C 1010.7 hPa East 13.2 km/h 14.8 km/h 97 % 2.03 mm
12:32 0.2 °C -0.4 °C 1010.4 hPa East 16.6 km/h 20.4 km/h 96 % 2.03 mm
12:37 0.2 °C -0.3 °C 1010 hPa East 12.9 km/h 18.5 km/h 96 % 1.78 mm
12:42 0.3 °C -0.3 °C 1010.4 hPa ENE 12.7 km/h 18.5 km/h 96 % 1.78 mm
12:47 0.3 °C -0.2 °C 1010.4 hPa ENE 12.7 km/h 16.7 km/h 97 % 1.78 mm
12:52 0.3 °C -0.1 °C 1010 hPa East 12.2 km/h 16.7 km/h 97 % 1.78 mm
12:57 0.3 °C -0.1 °C 1010.4 hPa East 11.6 km/h 14.8 km/h 97 % 1.52 mm
13:02 0.3 °C -0.1 °C 1010.4 hPa ENE 10.6 km/h 14.8 km/h 97 % 1.52 mm
13:07 0.4 °C -0.1 °C 1010.7 hPa East 11.1 km/h 14.8 km/h 97 % 1.52 mm
13:12 0.4 °C -0.1 °C 1010 hPa East 11.7 km/h 14.8 km/h 97 % 1.52 mm
13:18 0.4 °C 0 °C 1009.7 hPa ENE 10.8 km/h 13 km/h 97 % 1.78 mm
13:23 0.5 °C 0.1 °C 1009.7 hPa ENE 11.6 km/h 13 km/h 97 % 1.78 mm
13:28 0.5 °C 0.1 °C 1009 hPa East 11.3 km/h 13 km/h 97 % 1.78 mm
13:33 0.5 °C 0.1 °C 1009 hPa ENE 9.7 km/h 13 km/h 97 % 2.03 mm
13:38 0.6 °C 0.1 °C 1009 hPa East 9.3 km/h 13 km/h 97 % 2.03 mm
13:43 0.6 °C 0.1 °C 1008.7 hPa East 13.5 km/h 16.7 km/h 97 % 2.29 mm
13:48 0.7 °C 0.2 °C 1008.4 hPa East 11.7 km/h 16.7 km/h 97 % 2.03 mm
13:53 0.7 °C 0.3 °C 1008 hPa East 14.6 km/h 18.5 km/h 97 % 2.29 mm
13:58 0.8 °C 0.3 °C 1007.7 hPa ENE 13.5 km/h 14.8 km/h 97 % 2.54 mm
14:03 0.8 °C 0.4 °C 1007.3 hPa East 14.5 km/h 18.5 km/h 97 % 2.29 mm
14:08 0.8 °C 0.4 °C 1007.7 hPa East 9.7 km/h 16.1 km/h 97 % 0 mm
14:13 0.8 °C 0.4 °C 1007.3 hPa East 12.9 km/h 19.3 km/h 97 % 0 mm
14:18 0.9 °C 0.4 °C 1007.7 hPa East 12.6 km/h 18.5 km/h 97 % 1.52 mm
14:23 0.9 °C 0.5 °C 1007.3 hPa East 11.3 km/h 16.1 km/h 97 % 0 mm
14:28 1 °C 0.6 °C 1007.3 hPa ENE 11.3 km/h 14.5 km/h 97 % 0 mm
14:33 1 °C 0.6 °C 1007 hPa East 12.9 km/h 20.9 km/h 97 % 0 mm
14:38 1.1 °C 0.6 °C 1007.3 hPa East 12.9 km/h 16.1 km/h 97 % 0 mm
14:43 1.1 °C 0.7 °C 1007 hPa ENE 12.9 km/h 16.1 km/h 97 % 0 mm
14:48 1.2 °C 0.7 °C 1007 hPa East 12.9 km/h 16.1 km/h 97 % 0 mm
14:53 1.2 °C 0.7 °C 1007 hPa East 11.3 km/h 16.1 km/h 97 % 0 mm
14:58 1.2 °C 0.8 °C 1006.7 hPa ENE 11.6 km/h 14.8 km/h 97 % 0 mm
15:03 1.3 °C 0.8 °C 1006.7 hPa East 11.1 km/h 14.8 km/h 97 % 0.25 mm
15:08 1.3 °C 0.9 °C 1006.7 hPa East 10.9 km/h 14.8 km/h 97 % 0.25 mm
15:13 1.4 °C 0.9 °C 1006.3 hPa East 10.3 km/h 14.8 km/h 97 % 0.25 mm
15:18 1.4 °C 1.2 °C 1006.3 hPa East 10.9 km/h 14.5 km/h 98 % 0.25 mm
15:24 1.5 °C 1.2 °C 1006 hPa East 12.4 km/h 16.7 km/h 98 % 0.25 mm
15:29 1.6 °C 1.2 °C 1006 hPa East 11.4 km/h 14.8 km/h 97 % 0.25 mm
15:34 1.7 °C 1.3 °C 1006 hPa East 11.1 km/h 14.8 km/h 97 % 0.25 mm
15:39 1.8 °C 1.3 °C 1006 hPa ENE 13.8 km/h 17.7 km/h 97 % 0.25 mm
15:44 1.9 °C 1.6 °C 1006 hPa ENE 12.4 km/h 16.7 km/h 98 % 0.25 mm
15:49 1.9 °C 1.7 °C 1005.6 hPa ENE 12.7 km/h 18.5 km/h 98 % 0.25 mm
15:54 2.1 °C 1.8 °C 1005.3 hPa East 11.1 km/h 16.7 km/h 98 % 0.25 mm
15:59 2.1 °C 1.8 °C 1005.3 hPa ENE 10.9 km/h 14.8 km/h 98 % 0.51 mm
16:04 2.2 °C 1.9 °C 1005.3 hPa East 10 km/h 12.9 km/h 98 % 0.25 mm
16:09 2.2 °C 1.9 °C 1005.3 hPa ENE 10.9 km/h 14.8 km/h 98 % 0.25 mm
16:14 2.3 °C 2 °C 1005 hPa East 12.1 km/h 16.1 km/h 98 % 0.25 mm
16:19 2.3 °C 2 °C 1004.6 hPa East 12.4 km/h 16.7 km/h 98 % 0.25 mm
16:24 2.3 °C 2 °C 1004.6 hPa ENE 10.8 km/h 16.7 km/h 98 % 0.25 mm
16:29 2.3 °C 2.1 °C 1004.3 hPa ENE 11.6 km/h 16.7 km/h 98 % 0.25 mm
16:34 2.3 °C 2.1 °C 1003.9 hPa East 13 km/h 16.7 km/h 98 % 0.25 mm
16:39 2.3 °C 2.1 °C 1003.9 hPa East 11.4 km/h 16.7 km/h 98 % 0.25 mm
16:44 2.3 °C 2.1 °C 1003.9 hPa East 9.2 km/h 14.5 km/h 98 % 0.25 mm
16:50 2.3 °C 2.1 °C 1003.6 hPa East 10.8 km/h 16.7 km/h 98 % 0.25 mm
16:55 2.3 °C 2.1 °C 1003.6 hPa East 11.1 km/h 13 km/h 98 % 0.25 mm
17:00 2.4 °C 2.1 °C 1003.6 hPa East 10.8 km/h 14.8 km/h 98 % 0 mm
17:05 2.4 °C 2.1 °C 1003.6 hPa ENE 12.2 km/h 16.7 km/h 98 % 0 mm
17:10 2.4 °C 2.2 °C 1003.6 hPa ENE 12.1 km/h 14.8 km/h 98 % 0 mm
17:15 2.4 °C 2.2 °C 1003.3 hPa ENE 11.9 km/h 16.7 km/h 98 % 0 mm
17:20 2.4 °C 2.2 °C 1003.3 hPa East 11.9 km/h 14.8 km/h 98 % 0 mm
17:25 2.4 °C 2.2 °C 1003.3 hPa ENE 9 km/h 14.8 km/h 98 % 0 mm
17:30 2.5 °C 2.2 °C 1003.6 hPa ENE 9.7 km/h 9.7 km/h 98 % 0 mm
17:35 2.6 °C 2.3 °C 1003.9 hPa ENE 14.8 km/h 16.7 km/h 98 % 0 mm
17:40 2.6 °C 2.3 °C 1003.6 hPa ENE 11.1 km/h 14.8 km/h 98 % 0 mm
17:45 2.7 °C 2.4 °C 1003.6 hPa East 9.5 km/h 11.1 km/h 98 % 0 mm
17:50 2.7 °C 2.4 °C 1003.3 hPa ENE 8.7 km/h 13 km/h 98 % 0 mm
17:55 2.7 °C 2.4 °C 1003.9 hPa North 5.1 km/h 9.3 km/h 98 % 0.25 mm
18:00 2.5 °C 2.2 °C 1003.3 hPa NE 6.9 km/h 16.7 km/h 98 % 0.25 mm
18:05 1.9 °C 1.7 °C 1003.3 hPa NNE 7.4 km/h 18.5 km/h 98 % 0.25 mm
18:10 1.8 °C 1.3 °C 1003.6 hPa NNE 9.5 km/h 24.1 km/h 97 % 0.25 mm
18:15 1.7 °C 1.2 °C 1003.6 hPa North 4.3 km/h 11.1 km/h 97 % 0.25 mm
18:21 1.6 °C 1.3 °C 1003.6 hPa NNE 14.6 km/h 22.2 km/h 98 % 0.25 mm
18:26 1.5 °C 1.2 °C 1003.6 hPa North 7.2 km/h 14.8 km/h 98 % 0.25 mm
18:31 1.4 °C 1 °C 1003.9 hPa NNW 1.9 km/h 5.6 km/h 97 % 0.25 mm
18:36 1.4 °C 0.9 °C 1003.6 hPa NE 7.2 km/h 13 km/h 97 % 0.25 mm
18:41 1.3 °C 1.1 °C 1003.9 hPa NNW 6.6 km/h 13 km/h 98 % 0.25 mm
18:46 1.3 °C 1.1 °C 1003.3 hPa ENE 10.6 km/h 16.1 km/h 98 % 0.25 mm
18:51 1.3 °C 1.1 °C 1003.9 hPa WSW 6.6 km/h 11.1 km/h 98 % 0.25 mm
18:56 1.4 °C 1.1 °C 1003.6 hPa North 7.2 km/h 14.8 km/h 98 % 0 mm
19:01 1.3 °C 1.1 °C 1003.6 hPa NNE 1.9 km/h 5.6 km/h 98 % 0 mm
19:06 1.4 °C 1.1 °C 1003.9 hPa NNE 9 km/h 14.8 km/h 98 % 0.25 mm
19:11 1.4 °C 1.1 °C 1004.3 hPa NNW 7.2 km/h 11.1 km/h 98 % 0.25 mm
19:16 1.4 °C 1.1 °C 1003.9 hPa North 5.8 km/h 11.1 km/h 98 % 0.25 mm
19:21 1.4 °C 1.2 °C 1003.9 hPa NNE 5.6 km/h 11.3 km/h 98 % 0.25 mm
19:27 1.5 °C 1.2 °C 1003.9 hPa NNW 2.6 km/h 5.6 km/h 98 % 0.25 mm
19:32 1.5 °C 1.2 °C 1003.9 hPa NNW 3.2 km/h 7.4 km/h 98 % 0.25 mm
19:37 1.5 °C 1.2 °C 1003.6 hPa NE 6.3 km/h 12.9 km/h 98 % 0.25 mm
19:42 1.6 °C 1.3 °C 1003.6 hPa North 5.5 km/h 9.3 km/h 98 % 0.25 mm
19:47 1.5 °C 1.2 °C 1003.3 hPa NNE 4.8 km/h 7.4 km/h 98 % 0.25 mm
19:52 1.5 °C 1.2 °C 1003.6 hPa NNE 3.7 km/h 5.6 km/h 98 % 0.25 mm
19:57 1.5 °C 1.2 °C 1003.6 hPa NW 4.5 km/h 7.4 km/h 98 % 0.25 mm
20:02 1.5 °C 1.2 °C 1003.3 hPa NNE 4.5 km/h 9.7 km/h 98 % 0.25 mm
20:07 1.4 °C 1.2 °C 1003.3 hPa NNE 4 km/h 8 km/h 98 % 0 mm
20:12 1.4 °C 1.2 °C 1003.3 hPa North 3.2 km/h 8 km/h 98 % 0 mm
20:17 1.4 °C 1.1 °C 1003.3 hPa NW 4 km/h 7.4 km/h 98 % 0 mm
20:22 1.4 °C 1.1 °C 1003.6 hPa West 5.3 km/h 11.3 km/h 98 % 0 mm
20:27 1.4 °C 1.1 °C 1003.6 hPa West 5.3 km/h 7.4 km/h 98 % 0 mm
20:32 1.3 °C 1.1 °C 1003.3 hPa WNW 4.3 km/h 7.4 km/h 98 % 0 mm
20:37 1.3 °C 1.1 °C 1003.3 hPa NW 3.5 km/h 13 km/h 98 % 0 mm
20:42 1.3 °C 1.1 °C 1003.3 hPa WNW 6.6 km/h 13 km/h 98 % 0 mm
20:48 1.3 °C 1.1 °C 1003.3 hPa WNW 3.1 km/h 9.3 km/h 98 % 0 mm
20:53 1.3 °C 1 °C 1002.9 hPa NNW 3.2 km/h 5.6 km/h 98 % 0 mm
20:58 1.3 °C 1 °C 1002.9 hPa NW 2.9 km/h 6.4 km/h 98 % 0 mm
21:03 1.3 °C 1 °C 1002.9 hPa NW 3.4 km/h 5.6 km/h 98 % 0 mm
21:08 1.3 °C 1 °C 1002.9 hPa NW 8.9 km/h 16.7 km/h 98 % 0 mm
21:13 1.3 °C 1 °C 1002.9 hPa WNW 3.7 km/h 14.8 km/h 98 % 0 mm
21:18 1.2 °C 0.9 °C 1002.9 hPa West 4.8 km/h 9.3 km/h 98 % 0 mm
21:23 1.2 °C 0.9 °C 1002.6 hPa NW 3.4 km/h 9.7 km/h 98 % 0 mm
21:28 1.1 °C 0.8 °C 1002.6 hPa WNW 3.2 km/h 9.3 km/h 98 % 0 mm
21:33 1.1 °C 0.8 °C 1002.6 hPa WNW 6.4 km/h 13 km/h 98 % 0 mm
21:38 1.1 °C 0.8 °C 1002.3 hPa WNW 1 km/h 3.7 km/h 98 % 0 mm
21:43 1.1 °C 0.8 °C 1002.3 hPa WNW 4.7 km/h 11.3 km/h 98 % 0 mm
21:48 1.1 °C 0.8 °C 1002.3 hPa NW 3.7 km/h 13 km/h 98 % 0 mm
21:53 1.1 °C 0.8 °C 1002.3 hPa WNW 6.8 km/h 12.9 km/h 98 % 0 mm
21:58 1.1 °C 0.8 °C 1001.9 hPa NW 6.4 km/h 13 km/h 98 % 0 mm
22:03 1.1 °C 0.8 °C 1002.3 hPa WNW 4.8 km/h 14.8 km/h 98 % 0 mm
22:08 1.1 °C 0.8 °C 1002.3 hPa West 2.1 km/h 9.3 km/h 98 % 0 mm
22:13 1.1 °C 0.8 °C 1002.3 hPa NW 4 km/h 9.3 km/h 98 % 0 mm
22:18 1.1 °C 0.8 °C 1001.9 hPa West 3.5 km/h 11.1 km/h 98 % 0 mm
22:23 1.1 °C 0.8 °C 1001.9 hPa West 3.1 km/h 5.6 km/h 98 % 0 mm
22:29 1.1 °C 0.8 °C 1001.9 hPa WNW 0.8 km/h 5.6 km/h 98 % 0 mm
22:34 1.1 °C 0.8 °C 1001.6 hPa WNW 6.8 km/h 11.1 km/h 98 % 0 mm
22:39 1 °C 0.7 °C 1001.6 hPa WNW 5.8 km/h 7.4 km/h 98 % 0 mm
22:44 0.9 °C 0.7 °C 1001.6 hPa NW 1.8 km/h 9.3 km/h 98 % 0 mm
22:49 0.9 °C 0.7 °C 1001.6 hPa NW 1.8 km/h 8 km/h 98 % 0 mm
22:54 0.9 °C 0.6 °C 1001.6 hPa West 0.6 km/h 5.6 km/h 98 % 0 mm
22:59 0.8 °C 0.6 °C 1001.6 hPa West 2.1 km/h 5.6 km/h 98 % 0 mm
23:04 0.8 °C 0.5 °C 1001.2 hPa West 3.2 km/h 5.6 km/h 98 % 0 mm
23:09 0.7 °C 0.4 °C 1001.2 hPa West 0.6 km/h 3.7 km/h 98 % 0 mm
23:14 0.7 °C 0.4 °C 1000.9 hPa Calm   1.9 km/h 98 % 0 mm
23:19 0.7 °C 0.4 °C 1000.9 hPa WSW 3.9 km/h 7.4 km/h 98 % 0 mm
23:24 0.7 °C 0.4 °C 1000.9 hPa West 3.5 km/h 9.3 km/h 98 % 0 mm
23:29 0.6 °C 0.3 °C 1000.6 hPa West 2.7 km/h 7.4 km/h 98 % 0 mm
23:34 0.6 °C 0.3 °C 1000.6 hPa WSW 5.3 km/h 8 km/h 98 % 0 mm
23:39 0.6 °C 0.3 °C 1000.6 hPa West 1.6 km/h 5.6 km/h 98 % 0 mm
23:44 0.6 °C 0.3 °C 1000.6 hPa WSW 4.5 km/h 9.3 km/h 98 % 0 mm
23:49 0.6 °C 0.1 °C 1000.6 hPa West 1.8 km/h 5.6 km/h 97 % 0 mm
23:54 0.6 °C 0.1 °C 1000.6 hPa WSW 3.4 km/h 3.7 km/h 97 % 0 mm
23:59 0.6 °C 0.1 °C 1000.6 hPa West 5.3 km/h 14.8 km/h 97 % 0 mm
Crab Meadow Weather
Compliments of Weather Underground - 3 mb

Script developed by  Jim McMurry - jmcmurry@mwt.net Adapted for the template by  Wim van der Kuil - Leuven-Template.eu

Weather Terms: Severe Thunderstorm Watch - Conditions are favorable for the development of severe thunderstorms in and close to the watch area. These watches are issued for large areas by the Storm Prediction Center in Norman, Oklahoma, and are usually valid for four to six hours.